Tracking 19242 objects as of 15-Aug-2018
HD Live streaming from Space Station
objects crossing your sky now

FLOCK 3P 38

Track FLOCK 3P 38 now!
10-day predictions
FLOCK 3P 38 is classified as:


NORAD ID: 42037
Int'l Code: 2017-008CT
Perigee: 493.3 km
Apogee: 504.5 km
Inclination: 97.4 °
Period: 94.4 minutes
Semi major axis: 6869 km
RCS: Unknown
Launch date: February 15, 2017
Source: United States (US)
Launch site: SRIHARIKOTA (SRI)
aabbcc
Your satellite tracking list
Your tracking list is empty




NASA's NSSDC Master Catalog

Two Line Element Set (TLE):
1 42037U 17008CT  18226.77998559  .00001719  00000-0  72493-4 0  9997
2 42037  97.4461 291.3966 0008162 157.7724 202.3869 15.24661332 82985
Source of the keplerian elements: AFSPC